[[{"header":{"parameterUnit":"m.s-1","parameterCategory":1,"la1":30.2991,"la2":30.254,"lo1":-89.0895,"lo2":-89.0444,"dy":0.0017,"dx":0.0017,"nx":28,"ny":28,"refTime":"2025-06-16T03:00:00:Z","depth":0,"parameterNumber":2,"parameterNumberName":"U-component_of_WINDS"},"data":[0,0,0,0,0,0,0,0,0,0,0,0,0,0,0,0,0,0,0,0,0,0,0,0,0,0,0,0,0,0,0,0,0,0,0,0,0,0,0,0,0,0,0,0,0,0,0,0,0,0,0,0,0,0,0,0,0,0,1.279,1.279,0,1.2777,1.2777,1.2777,1.2742,1.2741,1.2741,1.274,1.273,1.2731,1.2731,0,0,0,0,0,0,0,0,0,0,0,0,0,1.2787,1.2788,1.279,1.279,1.279,1.2777,1.2777,1.2777,1.2742,1.2741,1.274,1.2739,1.273,1.2731,1.2731,0,0,0,0,0,0,0,0,0,0,0,0,0,1.2783,1.2788,1.279,1.2771,1.2769,1.2777,1.2777,1.2777,1.2742,1.2741,1.274,1.2739,1.273,1.273,1.2731,1.2758,0,0,1.2733,1.2734,0,0,0,0,0,0,0,0,1.2783,1.2783,1.2774,1.2772,1.277,1.276,1.2772,1.2771,1.2743,1.2753,1.274,1.2738,1.2741,1.2741,1.2741,1.2758,1.2757,1.2733,1.2734,1.2734,1.2734,0,0,0,0,0,0,0,1.2784,1.2784,1.2785,1.2774,1.2771,1.2764,1.2762,1.2772,1.2754,1.2752,1.2749,1.2748,1.274,1.2741,1.2741,1.2757,1.2733,1.2734,1.2734,1.2735,1.2794,1.2795,0,0,0,0,0,0,1.2786,1.2784,1.2785,1.2785,1.2774,1.2765,1.2763,1.2764,1.2753,1.275,1.2749,1.2746,1.274,1.274,1.274,1.277,1.2734,1.2735,1.2735,1.2793,1.2794,1.2796,0,0,0,0,0,0,1.2786,1.2787,1.2786,1.2784,1.2783,1.2766,1.2768,1.2765,1.2765,1.2751,1.2748,1.2752,1.2739,1.2739,1.2753,1.2769,1.2735,1.2736,1.2792,1.2793,1.2795,1.283,0,0,0,0,0,0,1.2786,1.2787,1.2796,1.2784,1.2783,1.2799,1.2769,1.2765,1.2766,1.2762,1.2754,1.2751,1.2738,1.2753,1.2754,1.2769,1.2736,1.279,1.2792,1.2795,1.2828,1.2833,1.2838,0,0,0,0,0,1.2786,1.2808,1.2797,1.2797,1.2794,1.28,1.2799,1.2783,1.2767,1.2777,1.2768,1.2752,1.2767,1.2754,1.2756,1.2772,1.2789,1.2792,1.2794,1.2826,1.2832,1.2838,0,0,0,0,0,0,1.2824,1.2806,1.2794,1.2811,1.2807,1.2794,1.2805,1.279,1.2791,1.2788,1.2769,1.2767,1.2784,1.2779,1.2765,1.2797,1.2775,1.2779,1.2799,1.2805,1.281,1.281,1.2737,0,0,0,0,0,1.2834,1.2839,1.2823,1.284,1.2839,1.2823,1.2824,1.2812,1.2807,1.2805,1.2797,1.2794,1.2798,1.2802,1.2805,1.2827,1.2825,1.2839,1.2844,1.2848,1.2851,1.2861,1.2867,1.2804,1.2804,1.2804,0,0,1.2855,1.2846,1.285,1.2848,1.2843,1.2849,1.2821,1.2829,1.2833,1.2807,1.2819,1.2813,1.2809,1.2827,1.2834,1.2823,1.2868,1.2851,1.2855,1.2855,1.2865,1.2871,1.2876,1.2806,1.2806,1.2806,0,0,1.2897,1.2891,1.2903,1.2899,1.2891,1.288,1.2884,1.2872,1.2867,1.2879,1.2858,1.2864,1.2872,1.2869,1.2868,1.2908,1.2893,1.291,1.2936,1.2947,1.2952,1.2956,1.2969,1.2974,1.2913,1.2913,1.2913,0,1.2924,1.2931,1.2912,1.2921,1.292,1.2895,1.2908,1.2906,1.29,1.2901,1.2888,1.2897,1.2892,1.2908,1.2918,1.2919,1.2922,1.2911,1.2952,1.2957,1.296,1.2973,1.2978,1.2915,1.2915,1.2915,1.2915,0,1.2965,1.2971,1.2982,1.2976,1.2977,1.2988,1.2971,1.2974,1.2962,1.2953,1.2965,1.2958,1.2959,1.2962,1.2951,1.2977,1.297,1.2956,1.2934,1.2969,1.298,1.2985,1.2918,1.2917,1.2917,1.2916,0,0,1.3029,1.3012,1.3016,1.3013,1.3003,1.3007,1.3017,1.3016,1.3019,1.3017,1.3024,1.3031,1.3017,1.3017,1.3005,1.3015,1.3045,1.2998,1.2998,1.3006,1.3073,1.3083,1.3089,1.3035,1.3036,1.3037,1.3073,0,1.3068,1.3082,1.3065,1.3084,1.3088,1.3065,1.3074,1.3069,1.306,1.3064,1.3055,1.3059,1.3041,1.304,1.3049,1.304,1.3058,1.3037,1.3043,1.3043,1.3043,1.3095,1.3106,1.314,1.3077,1.3078,1.3079,0,1.3114,1.3111,1.313,1.3118,1.3119,1.3127,1.3125,1.3128,1.3123,1.3116,1.3115,1.31,1.311,1.3089,1.3102,1.3088,1.3089,1.3085,1.3086,1.3085,1.3062,1.3095,1.3151,1.3156,1.3086,1.3085,1.3085,0,1.3157,1.3159,1.317,1.3168,1.3154,1.316,1.3155,1.3148,1.3149,1.3148,1.3148,1.3148,1.3148,1.3149,1.3135,1.3121,1.3149,1.3128,1.3144,1.3144,1.315,1.315,1.3207,1.3153,1.3153,1.3153,1.3153,0,1.3201,1.3213,1.3189,1.3196,1.3209,1.319,1.3204,1.3196,1.319,1.3195,1.3176,1.3182,1.3163,1.3167,1.3156,1.3168,1.3169,1.3164,1.316,1.3165,1.3165,1.3165,1.3161,1.3154,1.3154,1.3154,1.3154,0,1.3251,1.3236,1.3246,1.3232,1.3229,1.3239,1.3227,1.3233,1.3223,1.323,1.3231,1.3216,1.3219,1.3205,1.3207,1.32,1.3217,1.3211,1.3218,1.3216,1.3232,1.3231,1.329,1.3296,1.324,1.3241,1.3241,0,1.3279,1.3287,1.3274,1.3276,1.3271,1.3274,1.3274,1.3256,1.3257,1.3251,1.3258,1.3259,1.3259,1.3266,1.3256,1.3257,1.325,1.327,1.325,1.3253,1.3249,1.3248,1.3248,1.3274,1.3275,1.3276,1.3276,0,1.333,1.3322,1.3322,1.332,1.332,1.3318,1.3314,1.3317,1.3298,1.33,1.3302,1.3302,1.3303,1.3305,1.3304,1.3299,1.3285,1.3283,1.3286,1.329,1.3294,1.3291,1.3229,1.3281,1.3281,1.3281,1.328,1.328,1.3369,1.3375,1.3366,1.3367,1.3363,1.3359,1.3364,1.3354,1.3356,1.3354,1.3344,1.3348,1.3342,1.3339,1.3336,1.3339,1.333,1.3335,1.3336,1.3338,1.334,1.3294,1.3339,1.3339,1.3339,1.3339,1.3339,0,1.3418,1.3411,1.3412,1.3407,1.3408,1.3393,1.3388,1.339,1.3394,1.3389,1.3389,1.3392,1.3394,1.3383,1.3383,1.3388,1.3382,1.3389,1.3388,1.3387,1.3349,1.3345,1.3394,1.3394,1.3394,1.3394,1.3394,1.3394,1.3444,1.3453,1.3444,1.345,1.3444,1.3447,1.3445,1.3442,1.3438,1.3442,1.3442,1.3435,1.3428,1.3428,1.3429,1.3426,1.3426,1.3436,1.343,1.3395,1.339,1.3385,1.3381,1.3436,1.3436,1.3468,1.3468,1.3468]},{"header":{"parameterUnit":"m.s-1","parameterCategory":1,"la1":30.2991,"la2":30.254,"lo1":-89.0895,"lo2":-89.0444,"dy":0.0017,"dx":0.0017,"nx":28,"ny":28,"refTime":"2025-06-16T03:00:00:Z","depth":0,"parameterNumber":3,"parameterNumberName":"V-component_of_WINDS"},"data":[0,0,0,0,0,0,0,0,0,0,0,0,0,0,0,0,0,0,0,0,0,0,0,0,0,0,0,0,0,0,0,0,0,0,0,0,0,0,0,0,0,0,0,0,0,0,0,0,0,0,0,0,0,0,0,0,0,0,2.9841,2.9841,0,2.9857,2.9858,2.9858,2.9872,2.9872,2.9872,2.9872,2.9886,2.9887,2.9887,0,0,0,0,0,0,0,0,0,0,0,0,0,2.982,2.982,2.9841,2.9841,2.9842,2.9857,2.9858,2.9858,2.9872,2.9872,2.9872,2.9872,2.9886,2.9887,2.9887,0,0,0,0,0,0,0,0,0,0,0,0,0,2.9832,2.982,2.9841,2.985,2.9851,2.9857,2.9858,2.9858,2.9872,2.9872,2.9872,2.9872,2.9886,2.9887,2.9887,2.9884,0,0,2.9888,2.9888,0,0,0,0,0,0,0,0,2.9831,2.9833,2.9849,2.985,2.9851,2.9863,2.9855,2.9867,2.9871,2.9864,2.9872,2.9872,2.9878,2.9879,2.9882,2.9885,2.9885,2.9888,2.9888,2.9888,2.9888,0,0,0,0,0,0,0,2.983,2.9832,2.9847,2.9849,2.985,2.9853,2.9855,2.9858,2.9869,2.9864,2.9866,2.9867,2.9879,2.9881,2.9882,2.9886,2.9888,2.9888,2.9888,2.9889,2.9888,2.9888,0,0,0,0,0,0,2.9828,2.9831,2.9847,2.9848,2.9842,2.9853,2.9856,2.9859,2.9869,2.9871,2.9867,2.9868,2.9881,2.9882,2.9883,2.988,2.9888,2.9889,2.9889,2.9888,2.9888,2.9888,0,0,0,0,0,0,2.9828,2.983,2.9846,2.984,2.9842,2.9853,2.9857,2.9859,2.9861,2.9871,2.9873,2.9868,2.9881,2.9882,2.9884,2.9881,2.9889,2.9889,2.9888,2.9888,2.9888,2.9876,0,0,0,0,0,0,2.9827,2.983,2.9829,2.984,2.9843,2.9848,2.9857,2.9859,2.9862,2.9863,2.9872,2.9874,2.9881,2.9883,2.9884,2.9882,2.9889,2.9889,2.9888,2.9888,2.9876,2.9875,2.9874,0,0,0,0,0,2.9827,2.9824,2.9829,2.9831,2.9842,2.9848,2.9849,2.9858,2.9862,2.9861,2.9868,2.9874,2.9881,2.9883,2.9885,2.9882,2.9889,2.9888,2.9888,2.9877,2.9875,2.9874,0,0,0,0,0,0,2.9811,2.9826,2.9831,2.9832,2.9839,2.985,2.9849,2.9856,2.986,2.9861,2.9871,2.9873,2.9874,2.9878,2.988,2.988,2.9886,2.9886,2.9877,2.9876,2.9874,2.9873,2.989,0,0,0,0,0,2.9808,2.9812,2.9824,2.9824,2.9828,2.9838,2.9841,2.9847,2.9854,2.9856,2.9863,2.9868,2.9872,2.9874,2.9878,2.9877,2.9879,2.9876,2.9875,2.9874,2.9873,2.9873,2.9872,2.9886,2.9886,2.9886,0,0,2.9802,2.981,2.9812,2.9822,2.9827,2.9831,2.984,2.9843,2.9845,2.9856,2.9859,2.9864,2.9871,2.9871,2.9872,2.9875,2.987,2.9873,2.9872,2.9872,2.9873,2.9871,2.987,2.9886,2.9886,2.9886,0,0,2.9792,2.9798,2.9799,2.9805,2.9815,2.9822,2.9822,2.9832,2.9837,2.9839,2.9848,2.9851,2.9857,2.9861,2.9865,2.9857,2.9863,2.9858,2.9851,2.9851,2.985,2.9849,2.9847,2.9846,2.9858,2.9858,2.9858,0,2.9782,2.9788,2.9799,2.9802,2.9806,2.9817,2.9818,2.9823,2.9832,2.9834,2.9838,2.9847,2.9852,2.9854,2.9852,2.9855,2.9855,2.9857,2.985,2.9849,2.9848,2.9846,2.9845,2.9857,2.9857,2.9857,2.9857,0,2.9776,2.978,2.978,2.979,2.9794,2.9795,2.9806,2.9809,2.9815,2.9822,2.9824,2.9832,2.9837,2.9838,2.9844,2.9841,2.9843,2.9848,2.9854,2.9846,2.9844,2.9843,2.9856,2.9857,2.9857,2.9857,0,0,2.9755,2.9773,2.9772,2.9777,2.9789,2.9792,2.9794,2.9801,2.9803,2.9809,2.9811,2.9817,2.9822,2.9825,2.9832,2.9832,2.9826,2.9837,2.9837,2.9834,2.9823,2.9819,2.9818,2.983,2.983,2.9829,2.9822,0,2.9747,2.9752,2.9763,2.9765,2.9769,2.978,2.9782,2.9789,2.9796,2.9799,2.9806,2.981,2.9816,2.9819,2.9819,2.9826,2.9823,2.9827,2.9831,2.9831,2.9828,2.9816,2.9812,2.9805,2.9822,2.9821,2.9821,0,2.9737,2.9744,2.9747,2.9759,2.9761,2.9763,2.977,2.9774,2.9782,2.9787,2.9791,2.9799,2.9801,2.9807,2.9811,2.9813,2.9815,2.9819,2.9819,2.9819,2.9825,2.9816,2.9803,2.9802,2.982,2.982,2.982,0,2.9722,2.9732,2.9735,2.9739,2.9753,2.9754,2.976,2.9768,2.9772,2.9778,2.9781,2.9787,2.979,2.9794,2.9803,2.9806,2.9805,2.9812,2.9809,2.9808,2.9807,2.9807,2.9794,2.9809,2.9809,2.9809,2.9809,0,2.9711,2.9712,2.9729,2.973,2.9732,2.9744,2.9745,2.9752,2.976,2.9763,2.9773,2.9775,2.9787,2.979,2.9797,2.9799,2.98,2.9803,2.9805,2.9802,2.9802,2.9804,2.9804,2.9809,2.9809,2.9809,2.9809,0,2.9693,2.9705,2.9709,2.9723,2.9726,2.9727,2.9738,2.974,2.9748,2.9751,2.9753,2.9764,2.9769,2.9779,2.9786,2.979,2.979,2.9794,2.9788,2.9789,2.9785,2.9785,2.9772,2.9771,2.9788,2.9787,2.9787,0,2.9685,2.9687,2.9701,2.9704,2.971,2.9715,2.972,2.9731,2.9735,2.9745,2.9746,2.9752,2.9757,2.9764,2.9773,2.9778,2.9781,2.9777,2.9782,2.978,2.9781,2.9781,2.9781,2.9775,2.9775,2.9775,2.9774,0,2.967,2.9676,2.9682,2.969,2.9696,2.9702,2.971,2.9712,2.9725,2.9729,2.9735,2.9739,2.9747,2.9752,2.976,2.9765,2.9771,2.9773,2.9772,2.9769,2.9766,2.9767,2.9784,2.9773,2.9773,2.9773,2.9773,2.9773,2.9657,2.9659,2.967,2.9676,2.9684,2.969,2.9693,2.9702,2.9707,2.9716,2.9722,2.9727,2.9736,2.9746,2.9751,2.9755,2.9758,2.9757,2.9757,2.9757,2.9756,2.9766,2.9756,2.9756,2.9756,2.9756,2.9756,0,2.9641,2.9649,2.9656,2.9667,2.9672,2.968,2.9688,2.9692,2.9697,2.9705,2.971,2.9717,2.9723,2.9732,2.9739,2.974,2.9743,2.9741,2.9741,2.9742,2.9752,2.9752,2.9738,2.9738,2.9738,2.9738,2.9738,2.9738,2.9634,2.9638,2.9646,2.9654,2.9661,2.9668,2.9672,2.9678,2.9685,2.9692,2.9698,2.9704,2.9713,2.972,2.9725,2.9728,2.973,2.9727,2.973,2.9739,2.9741,2.9743,2.9742,2.9727,2.9727,2.9719,2.9719,2.9719]}]]